Weather History for Westhampton Beach, NY

Change the Weather History Date:

Sunday, October 30, 2011

  Actual Average Record
Temperature  
Mean Temperature 36 °F -  
Max Temperature 48 °F 56 °F 64 °F (1999)
Min Temperature 26 °F 37 °F 26 °F (2008)
Degree Days  
Heating Degree Days 28    
Moisture  
Dew Point 29 °F    
Average Humidity 74    
Maximum Humidity 93    
Minimum Humidity 48    
Precipitation  
Precipitation 0.15 in - - ()
Sea Level Pressure  
Sea Level Pressure 30.06 in    
Wind  
Wind Speed 18 mph (NNW)    
Max Wind Speed 26 mph    
Max Gust Speed 37 mph    
Visibility 8 miles    
Events Rain , Snow    
Averages and records for this station are not official NWS values.
T = Trace of Precipitation, MM = Missing Value Source: NWS Daily Summary

Daily Weather History Graph

Daily Weather History Graph

Search for Another Location

Airport:

Trip Planner

Search our weather history database for the weather conditions in past years. The results will help you decide how hot, cold, wet, or windy it might be!

Date:

Astronomy

Oct. 30, 2011 Rise Set
Actual Time 7:18 AM EDT 5:49 PM EDT
Civil Twilight 6:49 AM EDT 6:17 PM EDT
Nautical Twilight 6:17 AM EDT 6:49 PM EDT
Astronomical Twilight 5:45 AM EDT 7:21 PM EDT
Moon 11:36 AM EDT (10/30) 9:13 PM EDT (10/30)
Length of Visible Light 11h 27m
Length of Day
10h 31m
Waxing Crescent, 20% of the Moon is Illuminated
Oct 30
Waxing Crescent
Nov 2
First Quarter
Nov 10
Full
Nov 18
Last Quarter
Nov 25
New

Hourly Weather History & Observations

Time (EDT) Temp. Windchill Dew Point Humidity Pressure Visibility Wind Dir Wind Speed Gust Speed Precip Events Conditions
12:53 AM 35.1 °F 23.3 °F 32.0 °F 89% 29.79 in 2.5 mi North 23.0 mph 32.2 mph 0.07 in Snow Light Snow
1:06 AM 33.8 °F 22.8 °F 32.0 °F 93% 29.80 in 2.0 mi North 18.4 mph 28.8 mph 0.02 in Snow Light Snow
1:16 AM 33.8 °F 22.8 °F 30.2 °F 87% 29.81 in 1.5 mi NNW 18.4 mph 35.7 mph 0.04 in Snow Light Snow
1:29 AM 33.8 °F 21.3 °F 32.0 °F 93% 29.81 in 2.5 mi NNW 24.2 mph 34.5 mph 0.05 in Snow Light Snow
1:39 AM 33.8 °F 23.2 °F 32.0 °F 93% 29.81 in 4.0 mi NNW 17.3 mph 28.8 mph 0.07 in Snow Light Snow
1:53 AM 35.1 °F 22.5 °F 32.0 °F 89% 29.82 in 4.0 mi NNW 26.5 mph 34.5 mph 0.08 in Snow Light Snow
2:29 AM 35.6 °F 25.5 °F 33.8 °F 93% 29.83 in 10.0 mi NNW 17.3 mph 25.3 mph 0.02 in Rain Light Rain
8:53 AM 39.9 °F 30.8 °F 30.0 °F 68% 30.03 in 10.0 mi NNW 18.4 mph 27.6 mph N/A   Partly Cloudy
9:53 AM 42.1 °F 33.9 °F 30.0 °F 62% 30.06 in 10.0 mi NNW 17.3 mph 28.8 mph N/A   Clear
10:53 AM 43.0 °F 33.5 °F 30.0 °F 60% 30.09 in 10.0 mi NW 24.2 mph 36.8 mph N/A   Clear
11:53 AM 45.0 °F 37.4 °F 30.0 °F 56% 30.12 in 10.0 mi NNW 18.4 mph 36.8 mph N/A   Clear
12:53 PM 46.9 °F - 30.0 °F 52% 30.12 in 10.0 mi NNW 18.4 mph 32.2 mph N/A   Clear
1:53 PM 46.9 °F - 28.9 °F 50% 30.14 in 10.0 mi NNW 18.4 mph 28.8 mph N/A   Clear
2:53 PM 46.9 °F - 28.9 °F 50% 30.16 in 10.0 mi NW 20.7 mph 28.8 mph N/A   Clear
3:53 PM 46.9 °F - 28.0 °F 48% 30.18 in 10.0 mi NW 19.6 mph 26.5 mph N/A   Clear
5:53 PM 42.1 °F 38.4 °F 27.0 °F 55% 30.23 in 10.0 mi NNW 5.8 mph - N/A   Clear
6:53 PM 34.0 °F - 27.0 °F 75% 30.27 in 10.0 mi Calm Calm - N/A   Clear
7:53 PM 30.0 °F 26.5 °F 25.0 °F 82% 30.29 in 10.0 mi WNW 3.5 mph - N/A   Clear
8:53 PM 28.9 °F - 26.1 °F 89% 30.31 in 10.0 mi Calm Calm - N/A   Clear
10:53 PM 27.0 °F - 24.1 °F 89% 30.33 in 10.0 mi Calm Calm - N/A   Clear
11:53 PM 26.1 °F - 23.0 °F 88% 30.34 in 10.0 mi Calm Calm - N/A   Clear